Location: Jackson Park
(37.2862°N, 79.9123°W)
Time: 02:30:50
(UTC+00:00)

Tiros 1 despin weight - Pass Details

Date: 14 May 2026
Orbit: 554 x 591 km, 48.2° (Epoch: 6 June)

Event Time Altitude Azimuth Distance (km) Brightness Sun altitude
Rises 08:42:15 0° 187° (S) 2,756 - -15.9°
Exits shadow 08:44:36 - 170° (S) 2,066 ? -15.6°
Reaches altitude 10° 08:45:33 10° 160° (SSE) 1,855 ? -15.4°
Maximum altitude 08:47:36 13° 131° (SE) 1,648 ? -15.1°
Drops below altitude 10° 08:49:38 10° 102° (ESE) 1,849 ? -14.8°
Sets 08:52:55 0° 75° (ENE) 2,742 ? -14.3°
